Location: B�rgermoos
(47.6500°N, 9.0667°E)
Time: 11:57:18
(UTC+00:00)

Vanguard 3 - Visible Passes

Search period start: 03 August 2021 00:00
Search period end: 13 August 2021 00:00
Orbit: 508 x 3261 km, 33.4° (Epoch: 02 August)

Date Brightness Start Highest point End Pass type
(mag) Time Alt. Az. Time Alt. Az. Time Alt. Az.
03 Aug 10.4 20:00:17 10° W 20:16:46 47° SSW 20:32:13 16° SE visible
03 Aug 10.5 22:15:34 10° W 22:30:57 31° SW 22:36:41 26° S visible
04 Aug 10.5 20:58:54 10° W 21:15:07 39° SSW 21:25:51 23° SSE visible
04 Aug 10.8 23:16:49 10° W 23:28:13 19° SW 23:30:20 18° SW visible
05 Aug 10.4 19:43:15 10° W 19:58:52 45° SSW 20:15:05 14° SE visible
05 Aug 10.6 21:58:25 10° W 22:12:58 28° SW 22:19:34 23° S visible
06 Aug 10.6 20:41:51 10° W 20:57:10 37° SSW 21:08:50 20° SSE visible
06 Aug 11.0 23:00:13 10° WSW 23:10:17 17° SW 23:13:19 16° SW visible
07 Aug 10.5 19:26:23 10° W 19:41:02 43° SSW 19:58:10 11° SE visible
07 Aug 10.8 21:41:31 10° W 21:55:01 26° SW 22:02:39 20° S visible
08 Aug 10.7 20:25:00 10° W 20:39:16 34° SSW 20:52:02 17° SSE visible
08 Aug 11.1 22:44:14 10° WSW 22:52:23 14° SW 22:56:32 13° SW visible
09 Aug 10.5 19:09:40 10° W 19:23:16 40° SSW 19:40:37 10° SE visible
09 Aug 10.9 21:24:53 10° W 21:37:08 23° SW 21:45:59 16° S visible
10 Aug 10.8 20:08:20 10° W 20:21:28 30° SSW 20:35:30 13° SSE visible
10 Aug 11.2 22:29:27 10° WSW 22:34:33 12° SW 22:39:44 10° SSW visible
11 Aug 10.6 18:53:06 10° W 19:05:38 37° SSW 19:22:14 10° SE visible
11 Aug 11.1 21:08:36 10° WSW 21:19:19 20° SW 21:29:35 12° S visible
12 Aug 10.8 19:51:54 10° W 20:03:46 27° SSW 20:18:16 10° SSE visible
